Flag for U.S.A. Weather past 2 weeks in Eau Claire, Wisconsin, U.S.A.

Now
31 °F

Ice fog.


Feels Like: 22 °F
Forecast: 30 / 35 °F
Wind: 12 mph from Southeast

Location: Eau Claire County Airport

Current Time: Dec 21, 2014 at 6:34:10 AM

Latest Report: Dec 21, 2014 at 5:56 AM


Visibility: 6 mi

Pressure: 30.03 "Hg

Humidity: 85%

Dew point: 27 °F

Location of Eau ClaireLocation

Historic Weather in Eau Claire — Graph

°F

Eau Claire temperature yesterday

Maximum temperature yesterday: 32 °F (at 12:56 PM)
Minimum temperature yesterday: 28 °F (at 12:56 AM)
Average temperature yesterday: 30 °F

Past Weeks' High & Low Weather Summary

 TemperatureHumidityPressure
High47 °F (Dec 14, 10:56 PM)100% (Dec 13, 3:56 AM)30.70 "Hg (Dec 13, 3:56 AM)
Low13 °F (Dec 6, 7:56 AM)56% (Dec 7, 5:56 PM)29.70 "Hg (Dec 15, 3:56 PM)
Average30 °F84%30.21 "Hg
* Reported Dec 6 4:56 AM — Dec 21 4:56 AM, Eau Claire, Weather by CustomWeather, © 2014

Note: Actual official high and low records may vary slightly from our data, if they occured in-between our weather recording intervals... More about our weather records

Advertising

Eau Claire weather history for previous 24 hours

 ConditionsComfort  
Time TempWeatherWind HumidityBarometerVisibility
4:56 AM
Dec 21
31 °FIce fog.12 mph85%30.05 "Hg6 mi
3:56 AM31 °FIce fog.6 mph85%30.08 "Hg6 mi
2:56 AM31 °FIce fog.7 mph85%30.11 "Hg5 mi
1:56 AM31 °FIce fog.8 mph85%30.12 "Hg6 mi
12:56 AM31 °FIce fog.8 mph85%30.14 "Hg5 mi
11:56 PM
Dec 20
31 °FIce fog.9 mph85%30.14 "Hg5 mi
10:56 PM30 °FIce fog.6 mph92%30.17 "Hg5 mi
9:56 PM30 °FIce fog.8 mph92%30.17 "Hg4 mi
8:56 PM31 °FLow clouds.10 mph82%30.17 "Hg6 mi
7:56 PM31 °FOvercast.9 mph82%30.18 "Hg7 mi
6:56 PM31 °FOvercast.7 mph82%30.19 "Hg7 mi
5:56 PM31 °FOvercast.10 mph82%30.18 "Hg7 mi
4:56 PM32 °FOvercast.6 mph79%30.19 "Hg8 mi
3:56 PM32 °FOvercast.7 mph75%30.19 "Hg7 mi
2:56 PM32 °FOvercast.6 mph75%30.18 "Hg8 mi
1:56 PM32 °FOvercast.8 mph75%30.19 "Hg8 mi
12:56 PM32 °FOvercast.7 mph75%30.20 "Hg9 mi
11:56 AM31 °FOvercast.9 mph76%30.21 "Hg7 mi
10:56 AM30 °FOvercast.7 mph75%30.22 "Hg7 mi
9:56 AM29 °FOvercast.7 mph79%30.23 "Hg8 mi
8:56 AM28 °FOvercast.6 mph78%30.23 "Hg7 mi
7:56 AM28 °FMostly cloudy.6 mph75%30.23 "Hg8 mi
6:56 AM28 °FOvercast.8 mph75%30.22 "Hg9 mi
Weather by CustomWeather, © 2014

See weather overviewHow to use our weather pages